Weather History for Peachtree City, GA

Change the Weather History Date:

Saturday, February 23, 2013

  Actual Average Record
Temperature  
Mean Temperature 46 °F 48 °F  
Max Temperature 51 °F 61 °F 75 °F (2012)
Min Temperature 42 °F 36 °F 26 °F (2009)
Degree Days  
Heating Degree Days 18 17  
Month to date heating degree days 434  
Since 1 July heating degree days 2303  
Cooling Degree Days 0 0  
Month to date cooling degree days 0  
Year to date cooling degree days 0  
Moisture  
Dew Point 42 °F    
Average Humidity 91    
Maximum Humidity 100    
Minimum Humidity 86    
Precipitation  
Precipitation 0.99 in 0.21 in 0.99 in (2013)
Month to date precipitation 4.01  
Year to date precipitation 8.21  
Snow  
Snow 0.00 in - - ()
Month to date snowfall  
Since 1 July snowfall  
Snow Depth -    
Sea Level Pressure  
Sea Level Pressure 29.95 in    
Wind  
Wind Speed 4 mph (NE)    
Max Wind Speed 12 mph    
Max Gust Speed -    
Visibility 6 miles    
Events Rain , Thunderstorm    
T = Trace of Precipitation, MM = Missing Value Source: NWS Daily Summary

Daily Weather History Graph

Daily Weather History Graph

Search for Another Location

Airport:

Trip Planner

Search our weather history database for the weather conditions in past years. The results will help you decide how hot, cold, wet, or windy it might be!

Date:

Astronomy

Feb. 23, 2013 Rise Set
Actual Time 7:13 AM EST 6:30 PM EST
Civil Twilight 6:48 AM EST 6:55 PM EST
Nautical Twilight 6:19 AM EST 7:24 PM EST
Astronomical Twilight 5:50 AM EST 7:53 PM EST
Moon 4:42 PM EST (2/23) 5:31 AM EST (2/23)
Length of Visible Light 12h 07m
Length of Day
11h 17m
Waxing Gibbous, 95% of the Moon is Illuminated
Feb 23
Waxing Gibbous
Feb 25
Full
Mar 4
Last Quarter
Mar 11
New
Mar 19
First Quarter

Hourly Weather History & Observations

Time (EST) Temp. Windchill Dew Point Humidity Pressure Visibility Wind Dir Wind Speed Gust Speed Precip Events Conditions
12:02 AM 42.8 °F 38.6 °F 39.2 °F 87% 30.03 in 3.0 mi East 6.9 mph - 0.02 in Rain Light Rain
12:38 AM 42.8 °F 41.1 °F 39.2 °F 87% 30.03 in 2.5 mi NE 3.5 mph - 0.13 in Rain Rain
12:50 AM 42.8 °F 38.6 °F 39.2 °F 87% 29.98 in 3.0 mi NE 6.9 mph - 0.16 in Rain Rain
12:53 AM 42.1 °F - 39.9 °F 92% 30.00 in 3.0 mi Calm Calm - 0.17 in Rain Rain
1:53 AM 42.1 °F 37.7 °F 39.9 °F 92% 29.98 in 4.0 mi East 6.9 mph - 0.09 in Rain Rain
2:53 AM 42.1 °F 38.4 °F 41.0 °F 96% 29.96 in 3.0 mi Variable 5.8 mph - 0.13 in Rain Rain
2:56 AM 42.8 °F 38.6 °F 39.2 °F 87% 29.94 in 2.5 mi NE 6.9 mph - 0.01 in Rain , Thunderstorm Heavy Rain
3:33 AM 42.8 °F 41.1 °F 41.0 °F 93% 29.94 in 2.0 mi Variable 3.5 mph - 0.19 in Rain Rain
3:48 AM 42.8 °F 39.3 °F 39.2 °F 87% 29.96 in 1.5 mi Variable 5.8 mph - 0.27 in Rain Heavy Rain
3:53 AM 42.1 °F 35.7 °F 39.9 °F 92% 29.98 in 2.0 mi NW 11.5 mph - 0.31 in Rain Heavy Rain
4:13 AM 42.8 °F 39.3 °F 39.2 °F 87% 29.99 in 2.0 mi West 5.8 mph - 0.11 in Rain Rain
4:20 AM 42.8 °F 41.1 °F 39.2 °F 87% 29.97 in 1.2 mi Variable 3.5 mph - 0.21 in Rain Heavy Rain
4:33 AM 42.8 °F - 39.2 °F 87% 29.96 in 2.5 mi Calm Calm - 0.24 in Rain Rain
4:41 AM 42.8 °F 41.1 °F 39.2 °F 87% 29.94 in 4.0 mi East 3.5 mph - 0.26 in Rain Light Rain
4:53 AM 42.1 °F 37.7 °F 39.9 °F 92% 29.94 in 7.0 mi ESE 6.9 mph - 0.26 in Rain Light Rain
5:09 AM 42.8 °F 38.0 °F 39.2 °F 87% 29.92 in 10.0 mi SE 8.1 mph - 0.01 in Rain Light Rain
5:26 AM 42.8 °F 40.1 °F 39.2 °F 87% 29.92 in 10.0 mi ESE 4.6 mph - 0.01 in   Overcast
5:53 AM 42.1 °F 40.2 °F 39.9 °F 92% 29.95 in 10.0 mi East 3.5 mph - 0.01 in   Overcast
6:00 AM 42.8 °F 41.1 °F 39.2 °F 87% 29.94 in 10.0 mi ESE 3.5 mph - 0.00 in Rain Light Rain
6:12 AM 42.8 °F 39.3 °F 39.2 °F 87% 29.93 in 5.0 mi East 5.8 mph - 0.01 in Rain Light Rain
6:53 AM 43.0 °F 40.3 °F 39.9 °F 89% 29.96 in 10.0 mi North 4.6 mph - 0.01 in   Overcast
7:01 AM 42.8 °F 41.1 °F 41.0 °F 93% 29.95 in 10.0 mi North 3.5 mph - 0.00 in Rain Light Rain
7:16 AM 42.8 °F 41.1 °F 41.0 °F 93% 29.96 in 10.0 mi NNW 3.5 mph - 0.00 in   Overcast
7:23 AM 42.8 °F - 41.0 °F 93% 29.95 in 10.0 mi Calm Calm - 0.00 in   Overcast
7:32 AM 42.8 °F - 41.0 °F 93% 29.94 in 10.0 mi Calm Calm - 0.00 in   Overcast
7:53 AM 43.0 °F - 41.0 °F 93% 29.96 in 10.0 mi Calm Calm - 0.00 in   Overcast
8:01 AM 42.8 °F - 41.0 °F 93% 29.94 in 9.0 mi Calm Calm - 0.00 in Rain Light Rain
8:29 AM 42.8 °F - 41.0 °F 93% 29.95 in 1.5 mi Calm Calm - 0.01 in Rain Light Rain
8:50 AM 42.8 °F - 42.8 °F 100% 29.95 in 3.0 mi Calm Calm - 0.01 in Rain Light Rain
8:53 AM 43.0 °F 41.3 °F 42.1 °F 97% 29.97 in 4.0 mi East 3.5 mph - 0.01 in   Overcast
9:53 AM 45.0 °F - 43.0 °F 93% 29.96 in 10.0 mi Calm Calm - N/A   Overcast
10:53 AM 46.0 °F 43.9 °F 43.0 °F 89% 29.97 in 5.0 mi NNE 4.6 mph - N/A   Overcast
11:53 AM 46.9 °F - 44.1 °F 90% 29.96 in 9.0 mi East 4.6 mph - N/A   Overcast
12:53 PM 46.9 °F - 44.1 °F 90% 29.95 in 10.0 mi NNE 3.5 mph - N/A   Overcast
1:53 PM 48.0 °F - 45.0 °F 89% 29.93 in 10.0 mi Calm Calm - N/A   Overcast
2:53 PM 48.9 °F - 45.0 °F 86% 29.95 in 9.0 mi Calm Calm - N/A   Overcast
3:53 PM 48.9 °F - 46.0 °F 90% 29.91 in 9.0 mi Calm Calm - N/A   Overcast
4:53 PM 50.0 °F - 46.0 °F 86% 29.88 in 8.0 mi Calm Calm - N/A   Overcast
5:53 PM 51.1 °F - 46.9 °F 86% 29.89 in 6.0 mi Calm Calm - N/A   Overcast
6:53 PM 50.0 °F - 46.9 °F 89% 29.90 in 9.0 mi ESE 3.5 mph - N/A   Overcast
7:53 PM 50.0 °F - 46.9 °F 89% 29.90 in 8.0 mi Calm Calm - N/A   Overcast
8:53 PM 48.9 °F - 46.9 °F 93% 29.91 in 7.0 mi NW 3.5 mph - N/A   Overcast
9:30 PM 50.0 °F - 48.2 °F 94% 29.90 in 6.0 mi NW 4.6 mph - N/A   Overcast
9:53 PM 50.0 °F - 48.0 °F 93% 29.92 in 7.0 mi Calm Calm - N/A   Overcast
10:41 PM 50.0 °F - 48.2 °F 94% 29.93 in 7.0 mi NW 4.6 mph - N/A   Overcast
10:53 PM 50.0 °F - 48.0 °F 93% 29.93 in 8.0 mi NW 3.5 mph - N/A   Overcast
11:47 PM 46.4 °F - 46.4 °F 100% 29.93 in 1.5 mi Calm Calm - N/A   Partly Cloudy
11:53 PM 46.9 °F - 46.0 °F 97% 29.94 in 1.2 mi Calm Calm - N/A   Partly Cloudy